Location: Donald C. Martin Observatory
(38.3885°N, 82.3916°W)
Time: 14:01:34
(UTC-04:00)

Cosmos 1484 Rocket - Visible Passes

Search period start: 24 October 2014 00:00
Search period end: 02 November 2014 23:00
Orbit: 515 x 572 km, 97.4° (Epoch: 23 October)

Date Brightness Start Highest point End Pass type
(mag) Time Alt. Az. Time Alt. Az. Time Alt. Az.
24 Oct 5.1 19:47:36 11° NE 19:47:36 11° NE 19:47:49 10° NNE visible
24 Oct 5.7 21:23:12 13° NNW 21:23:12 13° NNW 21:23:42 10° NNW visible
25 Oct 5.7 21:17:12 13° NNW 21:17:12 13° NNW 21:17:37 10° NNW visible
26 Oct 5.6 21:11:11 12° NNW 21:11:11 12° NNW 21:11:31 10° NNW visible
27 Oct 5.6 21:05:09 11° NNW 21:05:09 11° NNW 21:05:22 10° NNW visible
28 Oct 5.7 20:59:07 11° NNW 20:59:07 11° NNW 20:59:12 10° NNW visible
